Tracking 35280 objects as of 7-Sep-2026
HD Live streaming from Space Station
objects crossing your sky now

HULIANWANG DIGUI-57

Track HULIANWANG DIGUI-57 now!
10-day predictions


NORAD ID: 65114
Int'l Code: 2025-168J
Launch date: August 4, 2025
Source: People's Republic of China (PRC)
Launch site: Wenchang Satellite Launch Center (WSC)
Your satellite tracking list
Your tracking list is empty




NASA's NSSDC Master Catalog

Two Line Element Set (TLE):
1 65114U 25168J   26250.64153425 -.00000112  00000-0  26118-4 0  9991
2 65114  50.0028  29.5965 0008799 352.4323   7.6415 13.29329958 53670
Source of the keplerian elements: AFSPC